www.pogodaiklimat.ru

Погода и климат >> Архив погоды >> Бразилия >> Piripiri


ПОГОДА в Piripiri

  • Прогноз погоды в Piripiri
  • Монитор погоды в Piripiri
  • Климат города

АРХИВ ПОГОДЫ в Piripiri

Время (UTC), дата Ветер
(напр.,м/с)
 
Видим.   Явления Облачность Т
(С)
Тd
(С)
f
(%)
Тe
(С)
Тes
(С)
Комфортность P
(гПа)
Po
(гПа)
Тmin
(С)
Tmax
(С)
R
(мм)
R24
(мм)
S
(см)
16 17.09 В 2
{5}
н/о н/о +38.2 +14.1 24 +39 +39 очень
душно
1006.9 989.6
17 17.09 В 2
{4}
н/о н/о +38.4 +12.9 22 +38 +38 очень
жарко
1005.8 988.5
18 17.09 В 2
{4}
н/о н/о +39.3 +13.1 21 +39 +39 очень
жарко
1004.9 987.7
19 17.09 ЮВ 2
{4}
н/о н/о +38.1 +13.0 22 +38 +38 очень
жарко
1004.8 987.5
20 17.09 В 1
{4}
н/о н/о +37.7 +13.3 23 +38 +38 очень
жарко
1005.2 987.9
21 17.09 В 1
{2}
н/о н/о +36.1 +14.0 27 +37 +37 душно 1006.0 988.6
22 17.09 В 1
{2}
н/о н/о +34.3 +14.0 30 +35 +35 очень
жарко
1007.0 989.5
23 17.09 В 1
{2}
н/о н/о +33.1 +13.4 30 +34 +34 очень
жарко
1008.1 990.5
00 18.09 СЗ 1
{2}
н/о н/о +29.9 +17.5 47 +34 +34 очень
душно
1009.0 991.2
01 18.09 С 2
{3}
н/о н/о +28.6 +20.7 62 +35 +35 очень
душно
1009.8 991.9
02 18.09 С 1
{3}
н/о н/о +27.3 +21.4 70 +35 +35 очень
душно
1009.6 991.6
03 18.09 С 1
{2}
н/о н/о +26.1 +21.4 75 +33 +33 очень
душно
1009.3 991.3
04 18.09 СЗ 1
{2}
н/о н/о +24.6 +21.3 82 +31 +31 очень
душно
1008.8 990.7
05 18.09 СЗ 1
{2}
н/о н/о +24.3 +21.5 84 +31 +31 очень
душно
1008.5 990.4
06 18.09 СЗ 1
{1}
н/о н/о +24.0 +21.6 86 +31 +31 очень
душно
1008.6 990.4
07 18.09 ЮВ 1
{2}
н/о н/о +24.8 +19.6 73 +30 +30 душно 1008.8 990.7
08 18.09 Ю 2
{2}
н/о н/о +22.6 +20.5 88 +29 +29 очень
душно
1009.9 991.6
09 18.09 ЮЗ 1
{2}
н/о н/о +22.5 +20.5 88 +29 +29 очень
душно
1010.5 992.2
10 18.09 ЮВ 1
{2}
н/о н/о +26.7 +19.8 66 +33 +33 очень
душно
1010.6 992.6
11 18.09 ЮВ 2
{4}
н/о н/о +30.8 +17.3 44 +35 +35 очень
душно
1010.8 993.0
12 18.09 ЮВ 2
{4}
н/о н/о +33.4 +16.0 35 +36 +36 очень
душно
1011.0 993.4
13 18.09 ЮВ 2
{5}
н/о н/о +35.2 +15.3 31 +37 +37 очень
душно
1010.6 993.1
14 18.09 ЮВ 2
{4}
н/о н/о +36.7 +14.4 27 +38 +38 очень
душно
1009.6 992.2
15 18.09 В 2
{4}
н/о н/о +39.0 +13.8 23 +40 +40 очень
душно
1008.0 990.7
16 18.09 ЮВ 3
{5}
н/о н/о +38.4 +12.3 21 +38 +38 очень
жарко
1006.7 989.4
17 18.09 ЮВ 2
{5}
н/о н/о +39.8 +10.5 17 +38 +38 очень
жарко
1005.2 988.0
18 18.09 ЮВ 2
{4}
н/о н/о +40.1 +8.5 15 +38 +38 очень
жарко
1004.5 987.3
19 18.09 ЮВ 2
{4}
н/о н/о +40.2 +8.7 15 +38 +38 очень
жарко
1004.5 987.3
20 18.09 ЮВ 2
{4}
н/о н/о +38.8 +9.2 17 +37 +37 очень
жарко
1004.8 987.6
21 18.09 В 1
{3}
н/о н/о +36.6 +10.5 21 +36 +36 очень
жарко
1005.7 988.3
22 18.09 В 1
{2}
н/о н/о +34.0 +11.5 25 +34 +34 очень
жарко
1006.5 989.0
23 18.09 С 2
{5}
н/о н/о +30.8 +21.1 56 +38 +38 очень
душно
1008.0 990.3
00 19.09 С 2
{3}
н/о н/о +29.0 +21.5 64 +37 +37 очень
душно
1009.1 991.2
01 19.09
{3}
н/о н/о +27.4 +21.8 72 1009.7 991.7
02 19.09 С 1
{2}
н/о н/о +26.4 +21.9 76 +34 +34 очень
душно
1009.6 991.6
03 19.09 СЗ 1
{2}
н/о н/о +25.5 +21.7 80 +33 +33 очень
душно
1009.3 991.2
04 19.09 штиль 0
{1}
н/о н/о +24.6 +21.8 84 +31 +31 очень
душно
1008.5 990.4
05 19.09 Ю 1
{2}
н/о н/о +24.4 +21.6 84 +31 +31 очень
душно
1008.6 990.5
06 19.09 Ю 1
{2}
н/о н/о +24.4 +21.6 84 +31 +31 очень
душно
1008.8 990.7
07 19.09 Ю 1
{2}
н/о н/о +23.9 +21.3 85 +30 +30 очень
душно
1009.2 991.0
08 19.09 Ю 1
{2}
н/о н/о +22.8 +20.9 89 +30 +30 очень
душно
1009.9 991.7
09 19.09 ЮЗ 1
{2}
н/о н/о +23.2 +21.2 89 +31 +31 очень
душно
1011.1 992.9
10 19.09 ЮЗ 1
{2}
н/о н/о +25.4 +21.6 80 +33 +33 очень
душно
1011.9 993.8
11 19.09 Ю 2
{3}
н/о н/о +28.6 +21.1 64 +36 +36 очень
душно
1012.4 994.5
12 19.09 Ю 1
{3}
н/о н/о +30.5 +20.4 55 +37 +37 очень
душно
1012.7 994.9
13 19.09 ЮВ 2
{4}
н/о н/о +33.7 +18.7 41 +38 +38 очень
душно
1012.2 994.6
14 19.09 В 2
{5}
н/о н/о +35.3 +16.5 33 +38 +38 очень
душно
1011.2 993.7
15 19.09 В 2
{4}
н/о н/о +36.1 +15.3 29 +38 +38 очень
душно
1009.9 992.4
16 19.09 В 2
{7}
н/о н/о +37.4 +14.5 26 +38 +38 душно 1008.5 991.1
17 19.09 ЮВ 1
{4}
н/о н/о +37.0 +13.5 25 +37 +37 очень
жарко
1007.8 990.4
18 19.09 СВ 1
{3}
н/о н/о +38.2 +13.4 23 +38 +38 очень
жарко
1007.1 989.8
19 19.09 СВ 1
{3}
н/о н/о +38.2 +12.6 22 +38 +38 очень
жарко
1007.0 989.7
20 19.09 СВ 1
{2}
н/о н/о +36.7 +13.6 25 +37 +37 очень
жарко
1007.6 990.2
21 19.09 С 3
{5}
н/о н/о +33.8 +19.0 42 +39 +39 очень
душно
1008.7 991.1
22 19.09 С 2
{5}
н/о н/о +31.7 +20.0 50 +38 +38 очень
душно
1009.8 992.1
23 19.09 С 2
{4}
н/о н/о +30.0 +20.4 56 +37 +37 очень
душно
1011.2 993.4
01 20.09 С 1
{3}
н/о н/о +27.3 +20.4 66 +34 +34 очень
душно
1012.0 994.0
02 20.09 С 1
{2}
н/о н/о +26.1 +20.3 70 +32 +32 очень
душно
1011.5 993.4
03 20.09
{2}
н/о н/о +25.1 +20.2 74 1010.7 992.6
04 20.09 С 1
{2}
н/о н/о +24.4 +20.1 77 +30 +30 очень
душно
1010.3 992.1
05 20.09 З 1
{2}
н/о н/о +23.3 +19.7 80 +30 +30 очень
душно
1009.8 991.6
06 20.09 СЗ 1
{1}
н/о н/о +23.7 +19.5 77 +29 +29 душно 1009.7 991.5
07 20.09 З 1
{1}
н/о н/о +22.4 +19.9 86 +29 +29 очень
душно
1010.3 992.0
08 20.09 Ю 1
{2}
н/о н/о +22.3 +19.2 83 +28 +28 душно 1011.4 993.1
09 20.09 ЮВ 1
{2}
н/о н/о +23.0 +19.9 83 +30 +30 очень
душно
1012.6 994.3
10 20.09 ЮЗ 1
{2}
н/о н/о +25.6 +20.4 73 +32 +32 очень
душно
1012.9 994.8
11 20.09 ЮВ 1
{3}
н/о н/о +29.3 +19.8 57 +36 +36 очень
душно
1013.1 995.2
12 20.09 В 2
{5}
н/о н/о +32.2 +18.6 45 +37 +37 очень
душно
1012.9 995.2
13 20.09 ЮВ 2
{5}
н/о н/о +34.7 +17.8 37 +39 +39 очень
душно
1012.1 994.5
14 20.09 В 3
{4}
н/о н/о +35.3 +16.5 33 +38 +38 очень
душно
1010.9 993.4
15 20.09 ЮВ 2
{5}
н/о н/о +36.1 +16.3 31 +38 +38 очень
душно
1009.6 992.1
16 20.09 В 2
{5}
н/о н/о +37.3 +15.4 27 +39 +39 очень
душно
1008.0 990.6
17 20.09 В 2
{5}
н/о н/о +39.1 +13.2 22 +39 +39 очень
жарко
1006.8 989.5
18 20.09 В 2
{5}
н/о н/о +38.6 +12.1 21 +38 +38 очень
жарко
1006.3 989.0
19 20.09 В 2
{5}
н/о н/о +38.8 +11.4 19 +38 +38 очень
жарко
1006.3 989.0
20 20.09 В 2
{4}
н/о н/о +37.6 +11.2 20 +37 +37 очень
жарко
1006.7 989.4
21 20.09 СВ 1
{3}
н/о н/о +35.8 +12.6 25 +36 +36 очень
жарко
1007.4 990.0
22 20.09 С 2
{3}
н/о н/о +32.6 +16.9 39 +36 +36 очень
душно
1008.5 990.9
23 20.09 С 2
{4}
н/о н/о +30.6 +21.5 58 +39 +39 очень
душно
1009.9 992.1
00 21.09 СЗ 1
{3}
н/о н/о +28.7 +21.6 65 +37 +37 очень
душно
1010.6 992.7
01 21.09
{2}
н/о н/о +27.6 +21.6 70 1011.0 993.0
02 21.09 С 1
{3}
н/о н/о +26.4 +21.6 75 +34 +34 очень
душно
1011.2 993.1
03 21.09 С 1
{2}
н/о н/о +25.7 +21.3 77 +33 +33 очень
душно
1010.6 992.5
04 21.09 С 1
{1}
н/о н/о +25.3 +21.5 79 +32 +32 очень
душно
1009.9 991.8
05 21.09 С 1
{1}
н/о н/о +24.9 +21.0 79 +31 +31 очень
душно
1009.5 991.4
06 21.09 ЮВ 1
{2}
н/о н/о +24.0 +21.1 84 +30 +30 очень
душно
1009.9 991.7
07 21.09 Ю 1
{1}
н/о н/о +24.2 +21.2 83 +31 +31 очень
душно
1010.1 991.9
08 21.09 ЮВ 2
{3}
н/о н/о +25.9 +19.1 66 +31 +31 очень
душно
1010.5 992.4
09 21.09 В 2
{3}
н/о н/о +26.8 +18.8 62 +32 +32 очень
душно
1011.2 993.2
10 21.09 В 3
{6}
н/о н/о +29.0 +17.1 49 +33 +33 очень
душно
1011.7 993.8
11 21.09 В 3
{7}
н/о н/о +30.6 +17.4 45 +35 +35 очень
душно
1012.2 994.4
12 21.09 В 3
{7}
н/о н/о +32.3 +16.7 39 +35 +35 очень
душно
1012.5 994.8
13 21.09 ЮВ 3
{6}
н/о н/о +33.4 +16.0 35 +36 +36 очень
душно
1012.1 994.4
14 21.09 ЮВ 3
{5}
н/о н/о +34.9 +14.9 30 +36 +36 душно 1011.1 993.5
15 21.09 ЮВ 2
{5}
н/о н/о +36.4 +13.2 25 +37 +37 очень
жарко
1009.6 992.2
16 21.09 В 3
{5}
н/о н/о +38.1 +11.9 21 +38 +38 очень
жарко
1008.0 990.7
17 21.09 ЮВ 2
{5}
н/о н/о +38.7 +9.7 17 +37 +37 очень
жарко
1007.0 989.7
18 21.09 В 2
{5}
н/о н/о +38.9 +9.8 17 +37 +37 очень
жарко
1006.3 989.0
19 21.09 В 2
{5}
н/о н/о +38.4 +9.8 18 +37 +37 очень
жарко
1006.2 988.9
20 21.09 В 2
{4}
н/о н/о +37.6 +10.2 19 +36 +36 очень
жарко
1006.6 989.3
21 21.09 ЮВ 1
{3}
н/о н/о +35.3 +11.5 24 +35 +35 очень
жарко
1007.3 989.8
22 21.09 СВ 1
{3}
н/о н/о +32.6 +13.7 32 +34 +34 очень
жарко
1008.3 990.7
00 22.09 С 2
{4}
н/о н/о +28.2 +19.7 60 +34 +34 очень
душно
1010.3 992.4
02 22.09 С 1
{2}
н/о н/о +26.2 +20.1 69 +32 +32 очень
душно
1010.6 992.5
01 22.09
{3}
н/о н/о +27.0 +20.0 66 1010.8 992.8
03 22.09
{2}
н/о н/о +25.7 +20.3 72 1010.2 992.1
04 22.09 СВ 2
{3}
н/о н/о +25.6 +20.8 75 +32 +32 очень
душно
1008.7 990.6
05 22.09 СЗ 1
{3}
н/о н/о +23.3 +19.9 81 +30 +30 очень
душно
1008.3 990.1
06 22.09 ЮЗ 2
{2}
н/о н/о +22.6 +19.6 83 +29 +29 очень
душно
1008.5 990.3
08 22.09 ЮВ 1
{2}
н/о н/о +22.8 +20.0 84 +29 +29 очень
душно
1010.3 992.0
07 22.09 Ю 1
{2}
н/о н/о +22.7 +19.9 84 +29 +29 очень
душно
1009.1 990.9
09 22.09 ЮВ 1
{2}
н/о н/о +23.7 +20.3 81 +29 +29 душно 1010.8 992.6
10 22.09 Ю 1
{2}
н/о н/о +25.4 +20.3 73 +31 +31 очень
душно
1011.3 993.2
11 22.09 В 3
{5}
н/о н/о +30.3 +18.6 50 +35 +35 очень
душно
1011.5 993.7
12 22.09 В 3
{5}
н/о н/о +32.5 +18.1 42 +37 +37 очень
душно
1011.3 993.6
14 22.09 ЮВ 2
{5}
н/о н/о +35.7 +16.9 33 +39 +39 очень
душно
1010.2 992.7
13 22.09 В 2
{5}
н/о н/о +35.1 +17.2 35 +38 +38 очень
душно
1010.8 993.3
15 22.09 ЮВ 2
{5}
н/о н/о +36.4 +16.1 30 +38 +38 очень
душно
1008.7 991.3
16 22.09 Ю 2
{5}
н/о н/о +37.0 +14.7 27 +38 +38 душно 1007.4 990.0
17 22.09 ЮВ 2
{5}
н/о н/о +37.5 +14.3 25 +38 +38 очень
жарко
1006.3 989.0
18 22.09 В 2
{5}
н/о н/о +38.9 +14.3 23 +39 +39 очень
жарко
1005.3 988.1
20 22.09 В 1
{2}
н/о н/о +38.5 +12.9 22 +38 +38 очень
жарко
1005.5 988.2
19 22.09 С 1
{5}
н/о н/о +38.5 +13.2 22 +38 +38 очень
жарко
1005.3 988.0
21 22.09 СЗ 1
{2}
н/о н/о +36.3 +13.9 26 +37 +37 очень
жарко
1006.1 988.7
22 22.09 С 2
{4}
н/о н/о +32.8 +18.8 44 +38 +38 очень
душно
1007.2 989.6
23 22.09 СЗ 2
{4}
н/о н/о +30.6 +20.5 55 +38 +38 очень
душно
1008.4 990.6
00 23.09 С 2
{4}
н/о н/о +29.0 +20.4 60 +36 +36 очень
душно
1009.1 991.2
02 23.09
{2}
н/о н/о +26.5 +20.6 70 1009.8 991.8
01 23.09 С 1
{3}
н/о н/о +27.5 +20.5 66 +34 +34 очень
душно
1009.8 991.8
03 23.09 С 1
{2}
н/о н/о +25.3 +20.7 76 +32 +32 очень
душно
1009.3 991.2
04 23.09 С 2
{2}
н/о н/о +24.5 +20.7 79 +30 +30 очень
душно
1008.7 990.6
05 23.09 С 1
{2}
н/о н/о +23.6 +20.6 83 +29 +29 душно 1008.2 990.0
06 23.09 Ю 1
{1}
н/о н/о +23.0 +20.4 85 +30 +30 очень
душно
1008.3 990.1
08 23.09 Ю 1
{2}
н/о н/о +22.3 +20.1 87 +28 +28 душно 1009.6 991.3
07 23.09 Ю 1
{2}
н/о н/о +22.5 +20.1 86 +29 +29 очень
душно
1008.8 990.6
09 23.09 ЮВ 1
{2}
н/о н/о +23.1 +20.6 86 +30 +30 очень
душно
1010.1 991.9
10 23.09 Ю 2
{2}
н/о н/о +24.7 +21.0 80 +31 +31 очень
душно
1011.1 992.9
11 23.09 СЗ 1
{2}
н/о н/о +27.8 +20.9 66 +35 +35 очень
душно
1011.2 993.2
12 23.09 СВ 2
{4}
н/о н/о +31.9 +19.3 47 +37 +37 очень
душно
1011.0 993.3
14 23.09 С 2
{4}
н/о н/о +36.3 +17.8 34 +40 +40 очень
душно
1009.6 992.1
13 23.09 СВ 1
{4}
н/о н/о +34.5 +19.0 40 +39 +39 очень
душно
1010.6 993.0
15 23.09
{4}
н/о н/о +36.9 +16.1 29 1008.3 990.9
16 23.09 СВ 1
{3}
н/о н/о +38.0 +14.5 25 +39 +39 очень
душно
1006.9 989.6
17 23.09 ЮВ 2
{3}
н/о н/о +38.4 +13.1 22 +38 +38 очень
жарко
1006.0 988.7
20 23.09 В 1
{3}
н/о н/о +38.0 +11.0 20 +37 +37 очень
жарко
1005.8 988.5
19 23.09 В 1
{3}
н/о н/о +39.3 +10.9 18 +38 +38 очень
жарко
1005.3 988.1
21 23.09 С 2
{4}
н/о н/о +33.6 +19.0 42 +39 +39 очень
душно
1007.5 989.9
22 23.09 С 3
{5}
н/о н/о +31.4 +21.6 56 +40 +40 очень
душно
1008.6 990.9
00 24.09 С 2
{5}
н/о н/о +28.3 +21.3 66 +36 +36 очень
душно
1010.3 992.4
02 24.09 С 1
{3}
н/о н/о +26.2 +21.6 76 +34 +34 очень
душно
1011.1 993.0
03 24.09 С 1
{2}
н/о н/о +25.3 +21.5 79 +32 +32 очень
душно
1010.9 992.8
05 24.09 С 1
{2}
н/о н/о +24.1 +21.3 84 +30 +30 очень
душно
1010.1 991.9
04 24.09 С 1
{2}
н/о н/о +24.6 +21.4 82 +31 +31 очень
душно
1010.6 992.4
06 24.09 С 1
{2}
н/о н/о +23.6 +21.0 85 +30 +30 очень
душно
1010.0 991.8
07 24.09 ЮВ 1
{2}
н/о н/о +23.5 +21.0 86 +30 +30 очень
душно
1010.5 992.3
08 24.09 Ю 1
{2}
н/о н/о +23.3 +20.8 86 +31 +31 очень
душно
1011.3 993.1
09 24.09 штиль 0
{1}
н/о н/о +23.5 +20.9 85 +29 +29 душно 1011.8 993.6
11 24.09 В 1
{2}
н/о н/о +28.5 +19.6 59 +34 +34 очень
душно
1012.7 994.7
10 24.09 Ю 1
{1}
н/о н/о +25.4 +20.9 76 +32 +32 очень
душно
1012.7 994.6
14 24.09 СЗ 1
{3}
н/о н/о +34.8 +16.9 35 +38 +38 очень
душно
1010.5 992.9

 

Местоположение метеостанции Piripiri (Бразилия): широта -4.28 долгота -41.80 высота над уровнем моря 163 м.

В архиве по умолчанию представлена погода в Piripiri за последнюю неделю. Архивные данные за месяц целиком и за предыдущие месяцы, начиная с января 2011 года, Вы можете получить, выбрав интересующий диапазон дат из раскрывающегося списка и нажав кнопку "Ввод!".


*Определитесь, кто Вы:
робот инопланетянин человек

Внимание! Время в таблицах - всемирное. Для получения местного времени необходимо прибавить поправку, которая в Piripiri равна -3 ч.

Смотрите также архив погоды в соседних городах и на ближайших метеорологических станциях:

Погода в Esperantina (Бразилия) (67 км)
Погода в Castelo do Piaui (Бразилия) (123 км)
Погода в Parnaiba (Бразилия) (133 км)
Погода в Parnaiba (Бразилия) (135 км)
Погода в Teresina (Бразилия) (139 км)
Погода в Teresina (Бразилия) (141 км)
Погода в Crateus (Бразилия) (161 км)
Погода в Crateus (Бразилия) (161 км)
Погода в Sobral (Бразилия) (171 км)
Погода в Sobral (Бразилия) (173 км)

Пояснения к столбцам:

Ветер - указаны скорость ветра в м/с - средняя за 10 мин, порывы в срок и между сроками (в фигурных скобках) и направление, откуда дует ветер: С - северный, СВ - северо-восточный, В - восточный, ЮВ - юго-восточный, Ю - южный, ЮЗ - юго-западный, З - западный, СЗ - северо-западный.
Видимость - горизонтальная дальность видимости в метрах или километрах. При видимости от 1 до 10 км при отсутствии осадков обычно наблюдается дымка, при ухудшении видимости до 1 км и менее - туман. В сухую погоду видимость может ухудшаться дымом, пылью или мглою.
Явления - указаны атмосферные явления, наблюдавшиеся в срок или в последний час перед сроком; фигурными скобками обозначены явления, наблюдавшиеся между сроками (за 1-3 часа до срока); квадратными скобками обозначены град или гололедные отложения с указанием их диаметра в мм.
Облачность - указаны через наклонную черту общая и нижняя облачность в баллах и высота нижней границы облаков в метрах; квадратными скобками обозначены формы облаков: Ci - перистые, Cs - перисто-слоистые, Cc - перисто-кучевые, Ac - высококучевые, As - высокослоистые, Sc - слоисто-кучевые, Ns - слоисто-дождевые, Cu - кучевые, Cb - кучево-дождевые. Подробнее классификацию облаков см. в Атласе облаков (PDF).
T - Температура воздуха - температура, измеренная на высоте 2 м над землей.
Td - Температура точки росы - температура, при понижении до которой содержащийся в воздухе водяной пар достигнет насыщения.
f - Относительная влажность воздуха - влажноcть воздуха, измеренная на высоте 2 м над землей.
Te - Эффективная температура - температура, которую ощущает одетый по сезону человек в тени. Характеристика душности погоды. При расчете учитывается влияние влажности воздуха и скорости ветра на теплоощущения человека.
Tes - Эффективная температура на солнце - температура, которую ощущает человек, с поправкой на солнечный нагрев. Характеристика знойности погоды. Зависит от высоты солнца над горизонтом, облачности и скорости ветра. Ночью, в пасмурную погоду, а также при ветре 12 м/с и более поправка равна нулю.
P - Атмосферное давление - приведенное к уровню моря атмосферное давление.
Po - Атмосферное давление - измеренное на уровне метеостанции атмосферное давление.
Tmin - Минимальная температура - минимум температуры воздуха на высоте 2 м над землей.
Tmax - Максимальная температура - максимум температуры воздуха на высоте 2 м над землей.
R - Количество осадков - Количество выпавших осадков за период времени, мм. При наведении курсора мыши на число - период времени, за который выпало указанное количество осадков.
R24 - Количество осадков - Количество выпавших осадков за 24 часа, мм.
S - Снежный покров - Высота снежного покрова, см. При наведении курсора мыши на число - состояние снежного покрова и степень покрытия местности в баллах.